PTR212 CYTZ-CYUL

Flight info

Callsign PTR212
Flight time N/A
Altitude 23000
Route BOMET7 MIGLO HABBS7
Aircraft DH8D/M-SDE2E3FGRY/H

Departure

Time 2026-04-22 23:54
Airport Billy Bishop Toronto City Airport (CYTZ)

Arrival

Time N/A
Airport Montreal / Pierre Elliott Trudeau International Airport (CYUL)
Time Latitude Longitude Altitude Speed Heading
2026-04-22 23:41 43.63107 -79.39503 256 ft 0 kts 344°
2026-04-22 23:47 43.63108 -79.39503 256 ft 0 kts 344°
2026-04-22 23:47 43.63105 -79.39502 256 ft 2 kts 344°
2026-04-22 23:47 43.63091 -79.39496 256 ft 2 kts 344°
2026-04-22 23:47 43.63081 -79.39492 256 ft 1 kts 343°
2026-04-22 23:48 43.63070 -79.39481 256 ft 2 kts 301°
2026-04-22 23:48 43.63067 -79.39462 256 ft 2 kts 260°
2026-04-22 23:48 43.63068 -79.39455 256 ft 0 kts 251°
2026-04-22 23:50 43.63081 -79.39441 256 ft 10 kts 86°
2026-04-22 23:50 43.63095 -79.39346 257 ft 9 kts 72°
2026-04-22 23:51 43.63092 -79.39273 258 ft 7 kts 128°
2026-04-22 23:51 43.63084 -79.39213 258 ft 6 kts 74°
2026-04-22 23:51 43.63101 -79.39146 257 ft 7 kts 71°
2026-04-22 23:51 43.63117 -79.39080 257 ft 7 kts 71°
2026-04-22 23:52 43.63132 -79.39018 257 ft 6 kts 75°
2026-04-22 23:52 43.63095 -79.38957 256 ft 12 kts 187°
2026-04-22 23:52 43.63052 -79.39054 256 ft 21 kts 255°
2026-04-22 23:52 43.63006 -79.39273 256 ft 3 kts 248°
2026-04-22 23:53 43.62983 -79.39370 256 ft 37 kts 253°
2026-04-22 23:53 43.62790 -79.40147 251 ft 126 kts 252°
2026-04-22 23:53 43.62486 -79.41498 360 ft 165 kts 251°
2026-04-22 23:53 43.61709 -79.42741 677 ft 183 kts 209°
2026-04-22 23:54 43.60422 -79.43063 966 ft 199 kts 174°
2026-04-22 23:54 43.59050 -79.42749 1519 ft 203 kts 171°
2026-04-22 23:54 43.57645 -79.42392 2054 ft 208 kts 163°
2026-04-22 23:54 43.56516 -79.41215 2552 ft 208 kts 116°
2026-04-22 23:55 43.56283 -79.39236 2733 ft 223 kts 74°
2026-04-22 23:55 43.57077 -79.37449 3217 ft 223 kts 43°
2026-04-22 23:55 43.58200 -79.35967 3844 ft 228 kts 40°
2026-04-22 23:55 43.59385 -79.34487 4528 ft 230 kts 38°
2026-04-22 23:56 43.60594 -79.33036 5192 ft 233 kts 37°
2026-04-22 23:56 43.61816 -79.31606 5873 ft 235 kts 36°
2026-04-22 23:56 43.63077 -79.30157 6537 ft 238 kts 35°
2026-04-22 23:56 43.64347 -79.28714 7219 ft 239 kts 34°
2026-04-22 23:57 43.65640 -79.27260 7872 ft 242 kts 33°
2026-04-22 23:57 43.66948 -79.25800 8536 ft 244 kts 33°
2026-04-22 23:57 43.68272 -79.24326 9231 ft 245 kts 32°
2026-04-22 23:57 43.69606 -79.22849 9877 ft 249 kts 32°
2026-04-22 23:58 43.70789 -79.21124 10520 ft 259 kts 51°
2026-04-22 23:58 43.71670 -79.18848 10884 ft 278 kts 57°
2026-04-22 23:58 43.72558 -79.16376 11122 ft 293 kts 57°
2026-04-22 23:58 43.73658 -79.13255 12247 ft 282 kts 57°
2026-04-22 23:59 43.75419 -79.08318 13280 ft 287 kts 56°
2026-04-22 23:59 43.77182 -79.03416 14384 ft 289 kts 55°
2026-04-22 23:59 43.78980 -78.98420 15551 ft 291 kts 55°
2026-04-22 23:59 43.80796 -78.93388 16531 ft 295 kts 55°
2026-04-23 00:00 43.84474 -78.83156 18796 ft 299 kts 54°
2026-04-23 00:00 43.86367 -78.77983 19592 ft 307 kts 52°
2026-04-23 00:00 43.88407 -78.72770 20649 ft 309 kts 51°
2026-04-23 00:01 43.90498 -78.67463 21457 ft 316 kts 51°
2026-04-23 00:01 43.92585 -78.62105 22444 ft 320 kts 50°
2026-04-23 00:01 43.94684 -78.56677 22994 ft 320 kts 50°
2026-04-23 00:01 43.96759 -78.51299 23017 ft 319 kts 49°
2026-04-23 00:02 43.98867 -78.45821 23014 ft 319 kts 49°
2026-04-23 00:02 44.00959 -78.40368 23010 ft 318 kts 49°
2026-04-23 00:02 44.03015 -78.35001 23002 ft 319 kts 49°
2026-04-23 00:02 44.05103 -78.29548 22990 ft 320 kts 50°
2026-04-23 00:03 44.07202 -78.24051 22995 ft 320 kts 50°
2026-04-23 00:03 44.09272 -78.18623 23002 ft 321 kts 50°
2026-04-23 00:03 44.11386 -78.13064 22993 ft 322 kts 49°
2026-04-23 00:03 44.13480 -78.07545 22991 ft 323 kts 49°
2026-04-23 00:04 44.15570 -78.02032 22998 ft 325 kts 49°
2026-04-23 00:04 44.17648 -77.96399 22995 ft 330 kts 52°
2026-04-23 00:04 44.19341 -77.90403 23005 ft 337 kts 58°
2026-04-23 00:04 44.20898 -77.84284 23018 ft 336 kts 57°
2026-04-23 00:05 44.22505 -77.78105 23013 ft 336 kts 57°
2026-04-23 00:05 44.23977 -77.72532 23001 ft 336 kts 57°
2026-04-23 00:05 44.24793 -77.69478 23000 ft 336 kts 56°
2026-04-23 00:05 44.25610 -77.66424 22989 ft 337 kts 56°
2026-04-23 00:06 44.26423 -77.63385 22995 ft 337 kts 56°
2026-04-23 00:06 44.27243 -77.60317 22985 ft 338 kts 57°
2026-04-23 00:06 44.28001 -77.57484 22996 ft 338 kts 57°
2026-04-23 00:06 44.28816 -77.54433 23001 ft 337 kts 56°
2026-04-23 00:07 44.29391 -77.52282 22996 ft 338 kts 56°